Location: Gro�bocka
(50.8204°N, 11.9702°E)
Time: 01:42:29
(UTC+00:00)

Okean-O - Pass Details

Date: 29 October 2020
Orbit: 638 x 641 km, 98.2° (Epoch: 23 November)

Event Time Altitude Azimuth Distance (km) Brightness Sun altitude
Rises 16:23:49 0° 127° (SE) 2,940 5.7 -5.7°
Reaches altitude 10° 16:26:21 10° 114° (ESE) 2,035 4.7 -6.1°
Maximum altitude 16:29:52 24° 61° (ENE) 1,344 3.7 -6.6°
Drops below altitude 10° 16:33:24 10° 9° (N) 2,045 5.0 -7.2°
Sets 16:35:56 0° 355° (N) 2,959 6.0 -7.5°
